DW9005 Weather Reports


Display with metric or nautical units.
time (UTC)temp
F
wind
direction
speed
MPH
gust
MPH
rain 1hr
in
rain 24hr
in
rain mn
in
humidity
%
barometer
mb
20260504220021 0 0.0 0.0 0.00 0.00 0.00 1014.3
20260504214519 0 0.0 0.0 0.00 0.00 0.00 1014.4
20260504213057 0 0.0 0.0 0.00 0.00 0.00 1014.4
20260504211551 0 0.0 0.0 0.00 0.00 0.00 1014.3
20260504210037 0 0.0 0.0 0.00 0.00 0.00 1014.5
20260504204532 0 0.0 0.0 0.00 0.00 0.00 1014.5
20260504203004 0 0.0 0.0 0.00 0.00 0.00 1014.6
20260504201600 0 0.0 0.0 0.00 0.00 0.00 1014.7
20260504200039 0 0.0 0.0 0.00 0.00 0.00 1014.9
20260504194534 0 0.0 0.0 0.00 0.00 0.00 1015.1
20260504193013 0 0.0 0.0 0.00 0.00 0.00 1015.3
20260504191509 0 0.0 0.0 0.00 0.00 0.00 1015.4
20260504190053 0 0.0 0.0 0.00 0.00 0.00 1015.6
20260504184544 0 0.0 0.0 0.00 0.00 0.00 1015.8
20260504183023 0 0.0 0.0 0.00 0.00 0.00 1016.2
20260504181518 0 0.0 0.0 0.00 0.00 0.00 1016.4
20260504180116 0 0.0 0.0 0.00 0.00 0.00 1016.4
20260504174552 0 0.0 0.0 0.00 0.00 0.00 1016.6
20260504173030 0 0.0 0.0 0.00 0.00 0.00 1016.7
20260504171527 0 0.0 0.0 0.00 0.00 0.00 1017.1
20260504090116 45 244 0.0 0.0 0.00 0.00 0.00 94 1017.8
20260504081517 45 244 0.0 0.0 0.00 0.00 0.00 94 1017.8
20260504050018 49 244 0.0 0.0 0.00 0.00 0.00 91 1019.0
20260504044520 49 244 0.0 0.0 0.00 0.00 0.00 90 1018.9
20260504043015 49 244 0.0 0.0 0.00 0.00 0.00 90 1019.1
20260504041533 50 244 0.0 0.0 0.00 0.00 0.00 89 1019.1
20260504040019 50 244 0.0 0.0 0.00 0.00 0.00 88 1019.2
20260504034510 50 244 0.0 0.0 0.00 0.00 0.00 88 1019.5
20260504033009 51 244 0.0 0.0 0.00 0.00 0.00 87 1019.4
20260504031552 51 244 0.0 0.0 0.00 0.00 0.00 85 1019.5
20260504030050 52 244 0.0 0.0 0.00 0.00 0.00 84 1019.3
20260504024534 53 244 0.0 0.0 0.00 0.00 0.00 82 1019.1
20260504023033 53 244 0.0 0.0 0.00 0.00 0.00 81 1019.0
20260504021515 54 244 0.0 0.0 0.00 0.00 0.00 78 1018.9
20260504020023 55 244 0.0 0.0 0.00 0.00 0.00 76 1018.8
20260504014601 56 244 0.0 0.0 0.00 0.00 0.00 74 1018.8
20260504013118 56 244 0.0 0.0 0.00 0.00 0.00 71 1018.5
20260504011539 58 244 0.0 0.0 0.00 0.00 0.00 69 1018.6
20260504010041 59 244 0.0 0.0 0.00 0.00 0.00 66 1018.4
20260504004521 61 244 0.0 0.0 0.00 0.00 0.00 63 1018.2
20260504003020 64 244 0.0 0.0 0.00 0.00 0.00 56 1018.1
20260504001520 66 246 0.0 0.0 0.00 0.00 0.00 52 1018.1
20260504000008 67 242 0.0 0.0 0.00 0.00 0.00 46 1018.1
20260503234507 68 309 0.0 0.0 0.00 0.00 0.00 45 1018.1
20260503233011 69 327 0.0 0.0 0.00 0.00 0.00 41 1018.0
20260503231505 69 309 0.0 0.0 0.00 0.00 0.00 40 1018.1
20260503230013 70 303 0.0 0.0 0.00 0.00 0.00 39 1018.3
20260503224503 70 269 0.0 0.0 0.00 0.00 0.00 38 1018.3
20260503223003 70 270 0.0 0.0 0.00 0.00 0.00 39 1018.3
20260503221557 71 275 0.0 0.0 0.00 0.00 0.00 39 1018.4